EDT,Max TemperatureF,Mean TemperatureF,Min TemperatureF,Max Dew PointF,MeanDew PointF,Min DewpointF,Max Humidity, Mean Humidity, Min Humidity, Max Sea Level PressureIn, Mean Sea Level PressureIn, Min Sea Level PressureIn, Max VisibilityMiles, Mean VisibilityMiles, Min VisibilityMiles, Max Wind SpeedMPH, Mean Wind SpeedMPH, Max Gust SpeedMPH,PrecipitationIn, CloudCover, Events, WindDirDegrees
2013-3-1,42,38,35,29,26,22,73,62,53,29.88,29.80,29.71,10,10,10,14,7,20,0.00,8,,308
2013-3-2,36,33,30,23,20,18,67,58,48,29.88,29.85,29.80,10,10,10,14,9,17,0.00,8,,310
2013-3-3,35,32,28,19,18,16,64,57,50,29.90,29.85,29.80,10,10,10,18,11,23,0.00,8,,309
2013-3-4,37,30,24,18,16,12,72,55,43,30.03,29.97,29.91,10,10,10,18,13,28,0.00,3,,301
2013-3-5,44,32,21,25,20,14,78,61,42,30.09,30.01,29.88,10,10,10,9,3,,0.00,0,,17
2013-3-6,39,36,33,34,30,25,93,83,64,30.02,29.80,29.73,10,5,1,16,11,29,0.32,8,Rain-Snow,39
2013-3-7,46,40,35,28,23,20,70,54,35,30.16,30.10,30.03,10,10,10,16,8,26,0.00,5,,339
2013-3-8,46,39,32,25,22,18,64,50,39,30.30,30.20,30.15,10,10,10,20,10,31,0.00,5,,340
2013-3-9,57,42,27,27,22,15,85,54,19,30.36,30.31,30.26,10,10,10,8,4,,0.00,0,,326
2013-3-10,61,42,24,32,23,15,88,49,22,30.33,30.27,30.22,10,10,10,15,3,20,0.00,0,,155
2013-3-11,59,48,39,46,39,32,86,70,46,30.23,30.11,29.93,10,10,7,14,8,24,0.01,2,Rain,156
2013-3-12,54,46,37,52,45,27,94,81,56,29.96,29.80,29.74,10,6,0,18,9,25,1.19,7,Fog-Rain,260
2013-3-13,46,36,27,27,23,16,85,58,40,30.04,29.95,29.89,10,10,10,21,6,30,0.00,4,Rain,273
2013-3-14,39,34,30,18,15,12,59,48,34,30.09,30.05,30.02,10,10,10,23,13,33,0.00,3,,290
2013-3-15,53,38,24,32,22,11,79,52,33,30.07,29.92,29.78,10,10,10,21,7,26,0.00,3,,254
2013-3-16,43,38,33,32,30,27,89,81,60,29.96,29.80,29.72,10,6,2,10,5,,0.11,8,Rain,46
2013-3-17,41,34,30,30,25,19,89,72,47,30.29,30.12,29.93,10,8,2,10,3,,0.00,5,Snow,340
2013-3-18,34,32,30,31,26,16,93,79,52,30.33,30.12,29.89,10,5,0,14,5,21,0.29,8,Fog-Rain-Snow,82
2013-3-19,53,42,32,35,28,13,96,74,24,29.92,29.82,29.72,10,5,0,20,4,30,0.01,5,Fog,293
2013-3-20,48,38,28,25,16,14,72,43,27,29.96,29.89,29.78,10,10,10,18,10,30,0.00,3,,281
2013-3-21,36,32,26,21,13,8,64,48,34,29.86,29.81,29.75,10,10,9,16,8,23,0.00,6,,309
2013-3-22,41,32,26,18,16,12,69,54,41,30.00,29.91,29.84,10,10,10,18,8,25,0.00,4,,269
2013-3-23,48,36,25,21,19,17,75,53,34,30.02,29.98,29.92,10,10,10,16,7,23,0.00,2,,299
2013-3-24,43,32,23,23,20,18,81,57,38,30.00,29.85,29.66,10,10,10,10,2,,0.00,2,,68
2013-3-25,37,34,32,32,30,24,93,86,59,29.69,29.56,29.52,10,3,0,9,5,,0.02,8,Fog-Snow,17
2013-3-26,48,36,24,31,27,23,100,79,41,29.97,29.79,29.70,10,6,0,14,3,18,0.00,6,Fog-Rain-Snow,288
2013-3-27,48,40,35,28,25,22,70,56,39,30.09,30.03,29.97,10,10,10,18,9,28,0.00,5,,286
2013-3-28,48,42,35,32,27,22,76,59,39,30.22,30.12,30.07,10,10,10,14,7,21,0.00,7,Rain,300
2013-3-29,55,42,28,30,27,23,85,56,32,30.24,30.20,30.14,10,10,10,13,6,24,0.00,6,,317
2013-3-30,57,40,25,31,23,19,92,55,24,30.23,30.17,30.12,10,10,8,10,1,,0.00,0,,305
2013-3-31,52,42,34,46,39,20,100,80,37,30.11,29.85,29.73,10,6,0,12,4,17,0.00,5,Fog-Rain,183